Time,TemperatureF,DewpointF,PressureIn,WindDirection,WindDirectionDegrees,WindSpeedMPH,WindSpeedGustMPH,Humidity,HourlyPrecipIn,Conditions,Clouds,dailyrainin,SolarRadiationWatts/m^2,SoftwareType,DateUTC
2013-01-31 00:03:00,24.5,17.1,30.12,WNW,285,6.0,8.0,73,0.00,,,0.00,0,Wunderground v.1.15,2013-01-31 06:03:00,
2013-01-31 00:13:00,24.6,16.9,30.12,WSW,238,7.0,10.0,72,0.00,,,0.00,0,Wunderground v.1.15,2013-01-31 06:13:00,
2013-01-31 00:18:00,24.6,16.9,30.12,WNW,296,8.0,8.0,72,0.00,,,0.00,0,Wunderground v.1.15,2013-01-31 06:18:00,
2013-01-31 00:28:00,24.7,17.0,30.12,West,261,6.0,6.0,72,0.00,,,0.00,0,Wunderground v.1.15,2013-01-31 06:28:00,
2013-01-31 00:38:00,24.7,17.0,30.12,WSW,237,5.0,5.0,72,0.00,,,0.00,0,Wunderground v.1.15,2013-01-31 06:38:00,
2013-01-31 00:48:00,24.6,16.9,30.12,West,267,5.0,8.0,72,0.00,,,0.00,0,Wunderground v.1.15,2013-01-31 06:48:00,
2013-01-31 00:57:00,24.4,16.7,30.12,WSW,251,5.0,7.0,72,0.00,,,0.00,0,Wunderground v.1.15,2013-01-31 06:57:00,
2013-01-31 01:07:00,24.3,16.9,30.12,West,281,6.0,7.0,73,0.00,,,0.00,0,Wunderground v.1.15,2013-01-31 07:07:00,
2013-01-31 01:13:00,24.2,17.1,30.12,WSW,255,6.0,7.0,74,0.00,,,0.00,0,Wunderground v.1.15,2013-01-31 07:13:00,
2013-01-31 01:22:00,24.0,17.2,30.12,WSW,254,3.0,4.0,75,0.00,,,0.00,0,Wunderground v.1.15,2013-01-31 07:22:00,
2013-01-31 01:32:00,23.7,17.2,30.12,SW,233,3.0,4.0,76,0.00,,,0.00,0,Wunderground v.1.15,2013-01-31 07:32:00,
2013-01-31 01:37:00,23.6,17.1,30.12,WSW,248,3.0,4.0,76,0.00,,,0.00,0,Wunderground v.1.15,2013-01-31 07:37:00,
2013-01-31 01:47:00,23.5,17.0,30.12,WSW,239,3.0,3.0,76,0.00,,,0.00,0,Wunderground v.1.15,2013-01-31 07:47:00,
2013-01-31 01:52:00,23.4,17.3,30.11,SW,225,4.0,4.0,77,0.00,,,0.00,0,Wunderground v.1.15,2013-01-31 07:52:00,
2013-01-31 02:02:00,23.4,17.6,30.11,SW,232,3.0,4.0,78,0.00,,,0.00,0,Wunderground v.1.15,2013-01-31 08:02:00,
2013-01-31 02:12:00,23.4,17.8,30.11,SW,228,3.0,7.0,79,0.00,,,0.00,0,Wunderground v.1.15,2013-01-31 08:12:00,
2013-01-31 02:17:00,23.4,17.8,30.11,SW,219,4.0,4.0,79,0.00,,,0.00,0,Wunderground v.1.15,2013-01-31 08:17:00,
2013-01-31 02:27:00,23.5,17.9,30.11,SW,223,3.0,4.0,79,0.00,,,0.00,0,Wunderground v.1.15,2013-01-31 08:27:00,
2013-01-31 02:37:00,23.6,18.0,30.11,SW,229,5.0,5.0,79,0.00,,,0.00,0,Wunderground v.1.15,2013-01-31 08:37:00,
2013-01-31 02:47:00,23.8,18.2,30.11,SW,232,4.0,6.0,79,0.00,,,0.00,0,Wunderground v.1.15,2013-01-31 08:47:00,
2013-01-31 02:52:00,24.0,18.7,30.11,SW,230,4.0,6.0,80,0.00,,,0.00,0,Wunderground v.1.15,2013-01-31 08:52:00,
2013-01-31 03:02:00,24.2,18.9,30.11,SW,215,5.0,7.0,80,0.00,,,0.00,0,Wunderground v.1.15,2013-01-31 09:02:00,
2013-01-31 03:07:00,24.3,19.0,30.11,SW,230,6.0,7.0,80,0.00,,,0.00,0,Wunderground v.1.15,2013-01-31 09:07:00,
2013-01-31 03:14:00,24.5,18.9,30.11,SW,228,6.0,7.0,79,0.00,,,0.00,0,Wunderground v.1.15,2013-01-31 09:14:00,
2013-01-31 03:23:00,24.6,19.0,30.11,SW,236,5.0,6.0,79,0.00,,,0.00,0,Wunderground v.1.15,2013-01-31 09:23:00,
2013-01-31 03:28:00,24.7,19.1,30.11,SW,225,5.0,5.0,79,0.00,,,0.00,0,Wunderground v.1.15,2013-01-31 09:28:00,
2013-01-31 03:38:00,24.9,19.3,30.11,WSW,237,6.0,8.0,79,0.00,,,0.00,0,Wunderground v.1.15,2013-01-31 09:38:00,
2013-01-31 03:48:00,25.0,19.4,30.10,SSW,197,6.0,6.0,79,0.00,,,0.00,0,Wunderground v.1.15,2013-01-31 09:48:00,
2013-01-31 03:58:00,25.0,19.1,30.10,West,259,6.0,6.0,78,0.00,,,0.00,0,Wunderground v.1.15,2013-01-31 09:58:00,
2013-01-31 04:08:00,25.0,19.4,30.11,West,262,6.0,6.0,79,0.00,,,0.00,0,Wunderground v.1.15,2013-01-31 10:08:00,
2013-01-31 04:13:00,25.1,19.5,30.11,WSW,253,5.0,6.0,79,0.00,,,0.00,0,Wunderground v.1.15,2013-01-31 10:13:00,
2013-01-31 04:23:00,25.2,19.3,30.11,SW,216,7.0,7.0,78,0.00,,,0.00,0,Wunderground v.1.15,2013-01-31 10:23:00,
2013-01-31 04:33:00,25.3,19.4,30.11,SW,225,6.0,9.0,78,0.00,,,0.00,0,Wunderground v.1.15,2013-01-31 10:33:00,
2013-01-31 04:43:00,25.3,19.1,30.11,WSW,248,6.0,7.0,77,0.00,,,0.00,0,Wunderground v.1.15,2013-01-31 10:43:00,
2013-01-31 04:53:00,25.4,19.2,30.10,WSW,248,5.0,6.0,77,0.00,,,0.00,0,Wunderground v.1.15,2013-01-31 10:53:00,
2013-01-31 04:58:00,25.4,19.2,30.10,WSW,239,5.0,6.0,77,0.00,,,0.00,0,Wunderground v.1.15,2013-01-31 10:58:00,
2013-01-31 05:08:00,25.5,19.6,30.10,WSW,250,5.0,5.0,78,0.00,,,0.00,0,Wunderground v.1.15,2013-01-31 11:08:00,
2013-01-31 05:13:00,25.6,19.7,30.10,SW,218,5.0,5.0,78,0.00,,,0.00,0,Wunderground v.1.15,2013-01-31 11:13:00,
2013-01-31 05:23:00,25.6,19.7,30.10,West,263,5.0,5.0,78,0.00,,,0.00,0,Wunderground v.1.15,2013-01-31 11:23:00,
2013-01-31 05:33:00,25.6,19.7,30.10,West,279,4.0,4.0,78,0.00,,,0.00,0,Wunderground v.1.15,2013-01-31 11:33:00,
2013-01-31 05:38:00,25.6,19.7,30.10,WSW,256,4.0,4.0,78,0.00,,,0.00,0,Wunderground v.1.15,2013-01-31 11:38:00,
2013-01-31 05:48:00,25.7,20.1,30.10,WSW,254,4.0,6.0,79,0.00,,,0.00,0,Wunderground v.1.15,2013-01-31 11:48:00,
2013-01-31 05:58:00,25.7,20.1,30.10,SW,231,4.0,4.0,79,0.00,,,0.00,0,Wunderground v.1.15,2013-01-31 11:58:00,
2013-01-31 06:08:00,25.6,20.3,30.10,WSW,248,3.0,3.0,80,0.00,,,0.00,0,Wunderground v.1.15,2013-01-31 12:08:00,
2013-01-31 06:13:00,25.6,20.3,30.10,WSW,246,3.0,3.0,80,0.00,,,0.00,0,Wunderground v.1.15,2013-01-31 12:13:00,
2013-01-31 06:23:00,25.5,20.2,30.11,West,266,2.0,3.0,80,0.00,,,0.00,0,Wunderground v.1.15,2013-01-31 12:23:00,
2013-01-31 06:28:00,25.5,20.2,30.10,WSW,250,1.0,1.0,80,0.00,,,0.00,0,Wunderground v.1.15,2013-01-31 12:28:00,
2013-01-31 06:38:00,25.3,20.3,30.11,WSW,246,3.0,3.0,81,0.00,,,0.00,0,Wunderground v.1.15,2013-01-31 12:38:00,
2013-01-31 06:48:00,25.3,20.6,30.11,WSW,247,3.0,3.0,82,0.00,,,0.00,0,Wunderground v.1.15,2013-01-31 12:48:00,
2013-01-31 06:53:00,25.4,20.7,30.12,WSW,241,3.0,3.0,82,0.00,,,0.00,0,Wunderground v.1.15,2013-01-31 12:53:00,
2013-01-31 07:03:00,25.5,21.1,30.13,WSW,251,3.0,3.0,83,0.00,,,0.00,0,Wunderground v.1.15,2013-01-31 13:03:00,
2013-01-31 07:13:00,25.6,20.9,30.14,West,263,3.0,5.0,82,0.00,,,0.00,0,Wunderground v.1.15,2013-01-31 13:13:00,
2013-01-31 07:18:00,25.7,21.0,30.14,WSW,257,3.0,4.0,82,0.00,,,0.00,0,Wunderground v.1.15,2013-01-31 13:18:00,
2013-01-31 07:28:00,25.8,21.1,30.15,West,269,4.0,4.0,82,0.00,,,0.00,7,Wunderground v.1.15,2013-01-31 13:28:00,
2013-01-31 07:38:00,25.9,21.2,30.16,WNW,302,4.0,4.0,82,0.00,,,0.00,11,Wunderground v.1.15,2013-01-31 13:38:00,
2013-01-31 07:43:00,26.0,21.3,30.17,NW,307,3.0,4.0,82,0.00,,,0.00,12,Wunderground v.1.15,2013-01-31 13:43:00,
2013-01-31 07:53:00,26.0,21.3,30.16,WNW,285,4.0,6.0,82,0.00,,,0.00,33,Wunderground v.1.15,2013-01-31 13:53:00,
2013-01-31 08:03:00,26.1,21.4,30.17,NW,320,4.0,5.0,82,0.00,,,0.00,35,Wunderground v.1.15,2013-01-31 14:03:00,
2013-01-31 08:12:00,26.2,21.2,30.18,WNW,303,5.0,9.0,81,0.00,,,0.00,58,Wunderground v.1.15,2013-01-31 14:12:00,
2013-01-31 08:18:00,26.3,21.3,30.18,NW,307,6.0,6.0,81,0.00,,,0.00,63,Wunderground v.1.15,2013-01-31 14:18:00,
2013-01-31 08:28:00,26.5,21.5,30.18,NNW,333,5.0,9.0,81,0.00,,,0.00,104,Wunderground v.1.15,2013-01-31 14:28:00,
2013-01-31 08:38:00,26.4,21.1,30.19,NNW,332,8.0,8.0,80,0.00,,,0.00,91,Wunderground v.1.15,2013-01-31 14:38:00,
2013-01-31 08:47:00,26.2,20.6,30.20,NNW,330,6.0,6.0,79,0.00,,,0.00,102,Wunderground v.1.15,2013-01-31 14:47:00,
2013-01-31 08:57:00,26.2,20.3,30.20,NNW,345,7.0,9.0,78,0.00,,,0.00,297,Wunderground v.1.15,2013-01-31 14:57:00,
2013-01-31 09:02:00,26.4,20.5,30.20,NW,316,6.0,9.0,78,0.00,,,0.00,234,Wunderground v.1.15,2013-01-31 15:02:00,
2013-01-31 09:12:00,26.7,20.1,30.21,NW,306,6.0,11.0,76,0.00,,,0.00,292,Wunderground v.1.15,2013-01-31 15:12:00,
2013-01-31 09:18:00,26.7,20.1,30.21,NNW,327,7.0,7.0,76,0.00,,,0.00,297,Wunderground v.1.15,2013-01-31 15:18:00,
2013-01-31 09:27:00,27.0,20.4,30.21,North,351,6.0,6.0,76,0.00,,,0.00,339,Wunderground v.1.15,2013-01-31 15:27:00,
2013-01-31 09:37:00,27.6,20.1,30.21,NNW,330,6.0,6.0,73,0.00,,,0.00,378,Wunderground v.1.15,2013-01-31 15:37:00,
2013-01-31 09:42:00,27.7,19.8,30.22,WNW,284,7.0,13.0,72,0.00,,,0.00,357,Wunderground v.1.15,2013-01-31 15:42:00,
2013-01-31 09:52:00,27.3,18.5,30.21,NW,313,9.0,9.0,69,0.00,,,0.00,403,Wunderground v.1.15,2013-01-31 15:52:00,
2013-01-31 10:02:00,27.6,19.1,30.22,WNW,301,8.0,8.0,70,0.00,,,0.00,420,Wunderground v.1.15,2013-01-31 16:02:00,
2013-01-31 10:12:00,28.0,18.5,30.22,NNW,327,9.0,10.0,67,0.00,,,0.00,462,Wunderground v.1.15,2013-01-31 16:12:00,
2013-01-31 10:17:00,27.9,18.4,30.23,NW,317,10.0,15.0,67,0.00,,,0.00,517,Wunderground v.1.15,2013-01-31 16:17:00,
2013-01-31 10:27:00,27.8,18.6,30.23,NW,319,9.0,10.0,68,0.00,,,0.00,257,Wunderground v.1.15,2013-01-31 16:27:00,
2013-01-31 10:37:00,27.7,18.5,30.24,NNW,327,9.0,13.0,68,0.00,,,0.00,241,Wunderground v.1.15,2013-01-31 16:37:00,
2013-01-31 10:47:00,27.4,17.5,30.24,WNW,288,10.0,10.0,66,0.00,,,0.00,218,Wunderground v.1.15,2013-01-31 16:47:00,
2013-01-31 10:52:00,27.4,17.9,30.24,WNW,298,8.0,10.0,67,0.00,,,0.00,237,Wunderground v.1.15,2013-01-31 16:52:00,
2013-01-31 10:57:00,27.3,18.1,30.25,NW,306,8.0,8.0,68,0.00,,,0.00,172,Wunderground v.1.15,2013-01-31 16:57:00,
2013-01-31 11:07:00,26.8,16.6,30.25,NNW,337,9.0,9.0,65,0.00,,,0.00,163,Wunderground v.1.15,2013-01-31 17:07:00,
2013-01-31 11:13:00,26.7,17.6,30.25,NW,306,9.0,9.0,68,0.00,,,0.00,236,Wunderground v.1.15,2013-01-31 17:13:00,
2013-01-31 11:18:00,26.8,17.6,30.25,NW,318,8.0,8.0,68,0.00,,,0.00,207,Wunderground v.1.15,2013-01-31 17:18:00,
2013-01-31 11:28:00,26.4,16.9,30.25,North,5,8.0,9.0,67,0.00,,,0.00,176,Wunderground v.1.15,2013-01-31 17:28:00,
2013-01-31 11:33:00,26.3,17.2,30.25,NNW,329,8.0,9.0,68,0.00,,,0.00,204,Wunderground v.1.15,2013-01-31 17:33:00,
2013-01-31 11:43:00,26.5,17.7,30.26,NW,324,8.0,9.0,69,0.00,,,0.00,116,Wunderground v.1.15,2013-01-31 17:43:00,
2013-01-31 11:48:00,26.5,17.7,30.26,WNW,300,7.0,10.0,69,0.00,,,0.00,276,Wunderground v.1.15,2013-01-31 17:48:00,
2013-01-31 11:58:00,26.2,17.1,30.26,WNW,288,11.0,14.0,68,0.00,,,0.00,181,Wunderground v.1.15,2013-01-31 17:58:00,
2013-01-31 12:08:00,26.0,17.2,30.26,NNW,327,10.0,10.0,69,0.00,,,0.00,218,Wunderground v.1.15,2013-01-31 18:08:00,
2013-01-31 12:13:00,26.1,17.0,30.27,North,350,8.0,10.0,68,0.00,,,0.00,244,Wunderground v.1.15,2013-01-31 18:13:00,
2013-01-31 12:23:00,25.8,16.3,30.27,WNW,301,9.0,11.0,67,0.00,,,0.00,206,Wunderground v.1.15,2013-01-31 18:23:00,
2013-01-31 12:33:00,25.5,16.4,30.28,NW,318,11.0,12.0,68,0.00,,,0.00,176,Wunderground v.1.15,2013-01-31 18:33:00,
2013-01-31 12:43:00,25.1,15.3,30.29,NNW,327,13.0,13.0,66,0.00,,,0.00,185,Wunderground v.1.15,2013-01-31 18:43:00,
2013-01-31 12:53:00,24.5,11.0,30.30,NNW,333,11.0,13.0,56,0.00,,,0.00,251,Wunderground v.1.15,2013-01-31 18:53:00,
2013-01-31 12:58:00,24.0,10.2,30.30,NW,317,12.0,16.0,55,0.00,,,0.00,271,Wunderground v.1.15,2013-01-31 18:58:00,
2013-01-31 13:08:00,23.8,11.2,30.31,NW,325,11.0,11.0,58,0.00,,,0.00,281,Wunderground v.1.15,2013-01-31 19:08:00,
2013-01-31 13:18:00,23.2,11.0,30.31,NW,309,11.0,14.0,59,0.00,,,0.00,158,Wunderground v.1.15,2013-01-31 19:18:00,
2013-01-31 13:28:00,22.7,9.7,30.32,NW,317,12.0,12.0,57,0.00,,,0.00,155,Wunderground v.1.15,2013-01-31 19:28:00,
2013-01-31 13:33:00,22.5,9.9,30.32,WNW,296,13.0,13.0,58,0.00,,,0.00,188,Wunderground v.1.15,2013-01-31 19:33:00,
2013-01-31 13:43:00,22.6,11.2,30.31,NW,317,11.0,13.0,61,0.00,,,0.00,241,Wunderground v.1.15,2013-01-31 19:43:00,
2013-01-31 13:48:00,22.7,11.3,30.32,NW,304,11.0,11.0,61,0.00,,,0.00,202,Wunderground v.1.15,2013-01-31 19:48:00,
2013-01-31 13:53:00,22.5,9.9,30.32,WNW,301,14.0,14.0,58,0.00,,,0.00,220,Wunderground v.1.15,2013-01-31 19:53:00,
2013-01-31 14:03:00,22.1,9.2,30.34,WNW,282,15.0,16.0,57,0.00,,,0.00,283,Wunderground v.1.15,2013-01-31 20:03:00,
2013-01-31 14:13:00,22.0,8.3,30.34,NNW,338,16.0,17.0,55,0.00,,,0.00,552,Wunderground v.1.15,2013-01-31 20:13:00,
2013-01-31 14:23:00,21.6,8.3,30.35,NW,308,16.0,18.0,56,0.00,,,0.00,408,Wunderground v.1.15,2013-01-31 20:23:00,
2013-01-31 14:28:00,21.6,8.7,30.35,NW,308,17.0,17.0,57,0.00,,,0.00,327,Wunderground v.1.15,2013-01-31 20:28:00,
2013-01-31 14:33:00,21.8,9.7,30.35,NNW,331,14.0,18.0,59,0.00,,,0.00,459,Wunderground v.1.15,2013-01-31 20:33:00,
2013-01-31 14:43:00,21.8,10.0,30.36,NNW,344,14.0,17.0,60,0.00,,,0.00,392,Wunderground v.1.15,2013-01-31 20:43:00,
2013-01-31 14:53:00,22.1,8.4,30.36,NW,307,13.0,13.0,55,0.00,,,0.00,341,Wunderground v.1.15,2013-01-31 20:53:00,
2013-01-31 14:58:00,21.6,7.5,30.37,WNW,303,15.0,15.0,54,0.00,,,0.00,434,Wunderground v.1.15,2013-01-31 20:58:00,
2013-01-31 15:08:00,21.0,6.9,30.37,NW,319,15.0,15.0,54,0.00,,,0.00,132,Wunderground v.1.15,2013-01-31 21:08:00,
2013-01-31 15:18:00,20.6,7.0,30.38,NW,319,14.0,14.0,55,0.00,,,0.00,153,Wunderground v.1.15,2013-01-31 21:18:00,
2013-01-31 15:28:00,20.4,7.2,30.38,WNW,294,14.0,14.0,56,0.00,,,0.00,176,Wunderground v.1.15,2013-01-31 21:28:00,
2013-01-31 15:33:00,20.3,7.9,30.38,NW,304,13.0,17.0,58,0.00,,,0.00,211,Wunderground v.1.15,2013-01-31 21:33:00,
2013-01-31 15:43:00,20.4,8.0,30.39,WNW,292,13.0,17.0,58,0.00,,,0.00,162,Wunderground v.1.15,2013-01-31 21:43:00,
2013-01-31 15:48:00,20.4,8.3,30.39,NNW,345,11.0,15.0,59,0.00,,,0.00,169,Wunderground v.1.15,2013-01-31 21:48:00,
2013-01-31 15:58:00,20.1,8.1,30.39,NNW,327,11.0,11.0,59,0.00,,,0.00,142,Wunderground v.1.15,2013-01-31 21:58:00,
2013-01-31 16:08:00,19.4,7.4,30.40,NW,320,12.0,14.0,59,0.00,,,0.00,128,Wunderground v.1.15,2013-01-31 22:08:00,
2013-01-31 16:13:00,19.2,7.6,30.40,NW,311,13.0,14.0,60,0.00,,,0.00,160,Wunderground v.1.15,2013-01-31 22:13:00,
2013-01-31 16:23:00,18.9,8.4,30.40,NW,319,11.0,16.0,63,0.00,,,0.00,86,Wunderground v.1.15,2013-01-31 22:23:00,
2013-01-31 16:32:00,18.3,8.8,30.41,NW,310,9.0,11.0,66,0.00,,,0.00,51,Wunderground v.1.15,2013-01-31 22:32:00,
2013-01-31 16:42:00,17.7,8.6,30.42,NNW,348,8.0,14.0,67,0.00,,,0.00,21,Wunderground v.1.15,2013-01-31 22:42:00,
2013-01-31 16:52:00,16.7,8.0,30.42,NNW,336,10.0,13.0,68,0.00,,,0.00,18,Wunderground v.1.15,2013-01-31 22:52:00,
2013-01-31 17:02:00,16.2,7.8,30.43,NNW,328,8.0,10.0,69,0.00,,,0.00,21,Wunderground v.1.15,2013-01-31 23:02:00,
2013-01-31 17:08:00,16.1,7.7,30.43,NNW,328,7.0,7.0,69,0.00,,,0.00,14,Wunderground v.1.15,2013-01-31 23:08:00,
2013-01-31 17:17:00,16.1,7.4,30.44,NW,313,10.0,10.0,68,0.00,,,0.00,30,Wunderground v.1.15,2013-01-31 23:17:00,
2013-01-31 17:27:00,16.0,6.6,30.44,NW,310,9.0,11.0,66,0.00,,,0.00,12,Wunderground v.1.15,2013-01-31 23:27:00,
2013-01-31 17:32:00,15.8,6.4,30.45,NW,318,9.0,11.0,66,0.00,,,0.00,7,Wunderground v.1.15,2013-01-31 23:32:00,
2013-01-31 17:42:00,15.5,6.5,30.45,NNW,333,8.0,9.0,67,0.00,,,0.00,0,Wunderground v.1.15,2013-01-31 23:42:00,
2013-01-31 17:52:00,15.3,5.6,30.46,NW,318,9.0,10.0,65,0.00,,,0.00,0,Wunderground v.1.15,2013-01-31 23:52:00,
2013-01-31 18:02:00,15.1,5.8,30.47,NW,319,10.0,16.0,66,0.00,,,0.00,0,Wunderground v.1.15,2013-02-01 00:02:00,
2013-01-31 18:12:00,14.9,5.6,30.47,NW,312,12.0,12.0,66,0.00,,,0.00,0,Wunderground v.1.15,2013-02-01 00:12:00,
2013-01-31 18:17:00,14.8,5.8,30.48,NW,305,11.0,11.0,67,0.00,,,0.00,0,Wunderground v.1.15,2013-02-01 00:17:00,
2013-01-31 18:27:00,14.6,5.6,30.48,West,281,9.0,9.0,67,0.00,,,0.00,0,Wunderground v.1.15,2013-02-01 00:27:00,
2013-01-31 18:37:00,14.4,6.1,30.49,NNW,329,10.0,10.0,69,0.00,,,0.00,0,Wunderground v.1.15,2013-02-01 00:37:00,
2013-01-31 18:47:00,14.0,6.6,30.50,NW,319,8.0,8.0,72,0.00,,,0.00,0,Wunderground v.1.15,2013-02-01 00:47:00,
2013-01-31 18:57:00,13.7,6.0,30.51,North,355,9.0,9.0,71,0.00,,,0.00,0,Wunderground v.1.15,2013-02-01 00:57:00,
2013-01-31 19:07:00,13.5,5.2,30.51,NNW,332,8.0,8.0,69,0.00,,,0.00,0,Wunderground v.1.15,2013-02-01 01:07:00,
2013-01-31 19:13:00,13.4,4.8,30.52,NW,321,9.0,12.0,68,0.00,,,0.00,0,Wunderground v.1.15,2013-02-01 01:13:00,
2013-01-31 19:18:00,13.2,4.6,30.52,NNW,331,10.0,10.0,68,0.00,,,0.00,0,Wunderground v.1.15,2013-02-01 01:18:00,
2013-01-31 19:28:00,13.0,4.1,30.52,NW,311,10.0,10.0,67,0.00,,,0.00,0,Wunderground v.1.15,2013-02-01 01:28:00,
2013-01-31 19:38:00,12.8,4.2,30.52,NW,308,7.0,8.0,68,0.00,,,0.00,0,Wunderground v.1.15,2013-02-01 01:38:00,
2013-01-31 19:43:00,12.7,3.8,30.53,NW,312,8.0,13.0,67,0.00,,,0.00,0,Wunderground v.1.15,2013-02-01 01:43:00,
2013-01-31 19:53:00,12.6,4.0,30.54,NW,304,9.0,9.0,68,0.00,,,0.00,0,Wunderground v.1.15,2013-02-01 01:53:00,
2013-01-31 20:03:00,12.3,3.4,30.54,NW,309,10.0,13.0,67,0.00,,,0.00,0,Wunderground v.1.15,2013-02-01 02:03:00,
2013-01-31 20:08:00,12.1,1.9,30.55,West,267,10.0,10.0,63,0.00,,,0.00,0,Wunderground v.1.15,2013-02-01 02:08:00,
2013-01-31 20:18:00,11.7,0.5,30.55,NNW,336,10.0,13.0,60,0.00,,,0.00,0,Wunderground v.1.15,2013-02-01 02:18:00,
2013-01-31 20:23:00,11.6,0.4,30.55,NNW,348,12.0,13.0,60,0.00,,,0.00,0,Wunderground v.1.15,2013-02-01 02:23:00,
2013-01-31 20:33:00,11.5,1.0,30.55,NNW,336,10.0,12.0,62,0.00,,,0.00,0,Wunderground v.1.15,2013-02-01 02:33:00,
2013-01-31 20:43:00,11.4,1.2,30.56,NNW,330,8.0,9.0,63,0.00,,,0.00,0,Wunderground v.1.15,2013-02-01 02:43:00,
2013-01-31 20:53:00,11.3,1.1,30.57,NNW,333,7.0,7.0,63,0.00,,,0.00,0,Wunderground v.1.15,2013-02-01 02:53:00,
2013-01-31 21:03:00,11.2,1.4,30.58,NW,313,6.0,9.0,64,0.00,,,0.00,0,Wunderground v.1.15,2013-02-01 03:03:00,
2013-01-31 21:13:00,11.1,1.6,30.58,NW,313,5.0,8.0,65,0.00,,,0.00,0,Wunderground v.1.15,2013-02-01 03:13:00,
2013-01-31 21:18:00,11.0,1.9,30.59,NW,318,5.0,5.0,66,0.00,,,0.00,0,Wunderground v.1.15,2013-02-01 03:18:00,
2013-01-31 21:28:00,11.0,2.2,30.59,NNW,334,4.0,7.0,67,0.00,,,0.00,0,Wunderground v.1.15,2013-02-01 03:28:00,
2013-01-31 21:38:00,11.0,1.9,30.60,NW,309,7.0,8.0,66,0.00,,,0.00,0,Wunderground v.1.15,2013-02-01 03:38:00,
2013-01-31 21:48:00,11.0,1.9,30.60,WNW,294,6.0,8.0,66,0.00,,,0.00,0,Wunderground v.1.15,2013-02-01 03:48:00,
2013-01-31 21:53:00,11.0,1.9,30.60,WNW,290,6.0,8.0,66,0.00,,,0.00,0,Wunderground v.1.15,2013-02-01 03:53:00,
2013-01-31 22:03:00,11.0,1.5,30.61,NW,316,7.0,8.0,65,0.00,,,0.00,0,Wunderground v.1.15,2013-02-01 04:03:00,
2013-01-31 22:13:00,11.0,1.5,30.61,WNW,294,6.0,8.0,65,0.00,,,0.00,0,Wunderground v.1.15,2013-02-01 04:13:00,
2013-01-31 22:23:00,10.9,2.1,30.62,WNW,299,4.0,5.0,67,0.00,,,0.00,0,Wunderground v.1.15,2013-02-01 04:23:00,
2013-01-31 22:28:00,10.9,1.8,30.62,WNW,297,5.0,6.0,66,0.00,,,0.00,0,Wunderground v.1.15,2013-02-01 04:28:00,
2013-01-31 22:38:00,10.9,1.1,30.62,WNW,292,9.0,9.0,64,0.00,,,0.00,0,Wunderground v.1.15,2013-02-01 04:38:00,
2013-01-31 22:48:00,10.9,1.1,30.63,NW,306,9.0,9.0,64,0.00,,,0.00,0,Wunderground v.1.15,2013-02-01 04:48:00,
2013-01-31 22:58:00,10.8,1.0,30.63,WNW,297,6.0,6.0,64,0.00,,,0.00,0,Wunderground v.1.15,2013-02-01 04:58:00,
2013-01-31 23:03:00,10.7,0.9,30.63,NNW,329,6.0,6.0,64,0.00,,,0.00,0,Wunderground v.1.15,2013-02-01 05:03:00,
2013-01-31 23:08:00,10.7,0.9,30.63,NW,313,6.0,11.0,64,0.00,,,0.00,0,Wunderground v.1.15,2013-02-01 05:08:00,
2013-01-31 23:13:00,10.7,0.6,30.63,WNW,303,7.0,11.0,63,0.00,,,0.00,0,Wunderground v.1.15,2013-02-01 05:13:00,
2013-01-31 23:18:00,10.7,0.6,30.63,NW,307,7.0,8.0,63,0.00,,,0.00,0,Wunderground v.1.15,2013-02-01 05:18:00,
2013-01-31 23:23:00,10.6,0.8,30.62,WNW,301,7.0,8.0,64,0.00,,,0.00,0,Wunderground v.1.15,2013-02-01 05:23:00,
2013-01-31 23:33:00,10.5,1.0,30.62,NW,323,6.0,8.0,65,0.00,,,0.00,0,Wunderground v.1.15,2013-02-01 05:33:00,
2013-01-31 23:43:00,10.4,1.3,30.61,NW,315,5.0,7.0,66,0.00,,,0.00,0,Wunderground v.1.15,2013-02-01 05:43:00,
2013-01-31 23:53:00,10.4,1.6,30.61,NW,318,7.0,7.0,67,0.00,,,0.00,0,Wunderground v.1.15,2013-02-01 05:53:00,
2013-01-31 23:58:00,10.3,1.8,30.61,NW,319,5.0,7.0,68,0.00,,,0.00,0,Wunderground v.1.15,2013-02-01 05:58:00,